STARLINK-2361, 47901

Orbit data source: Space-Track

STARLINK-2361, 47901 is a payload satellite owned by SpaceX/Seattle (US) in LEO that was launched on Sun, 14 Mar 2021 UTC via an FALCON 9 launch vehicle from the Air Force Eastern Test Range (AFETR). Payload-class satellites include a variety of spacecraft equipped with specific instruments for various scientific and technological missions. These include communications satellites like Starlink; space stations such as the ISS; scientific satellites like the Hubble; Earth observation satellites from companies like Planet Labs, Umbra, and HawkEye 360; GPS; miniature CubeSats for education and research; and military/defense satellites.

Loading next visibility...
Identifier
47901, 2021-021AT
Orbit
LEO
Country
Flag of USUS
Related business
Manufacturer
SpaceX/Seattle
Mission
Partially operational Commercial Communications
Bus & Motor
STARLINK, Unknown motor
Mass
260 kg wet, ~248 kg dry
Launch date (UTC)
2021-03-14 (5 years ago)
Launch vehicle
FALCON 9
Launch site
Air Force Eastern Test Range (AFETR)
Object type
Payload
Rocket body
Debris
Shape & HBR
Box + 1 Pan, 10.1 m
Radar Cross Section
13.562 m², Large (>1 m²)

Expand to show TLE details & history
Last TLE update: 3 days ago

TLE from 3 days ago
0 STARLINK-2361
1 47901U 21021AT  26170.90820820  .00052787  00000-0  13396-2 0  9995
2 47901  53.1556 137.5256 0005191  37.2766 322.8598 15.39171071292111
Epoch: 2026-06-19T21:47Z
TLE epoch observation values (Epoch: 2026-06-19T21:47:49.188Z)
Latitude
-0.00003°
Longitude
-97.55981°
Altitude
446.638 km
Speed
7.647 km/s
True Right ascension
09h 10m 06s
True Declination
0° 00' 00"
Sunlit
Object was in daylight at epoch
Visualization orbit readout
Latitude
Unknown
Longitude
Unknown
Altitude
Unknown
Speed
Unknown
Apparent Right ascension
Unknown
Apparent Declination
Unknown
Sunlit
N/A
Visualization observer readout
Local Sidereal Time
21:29:36
Azimuth
Unknown
Elevation
Unknown
Doppler factor
Unknown
Orbital elements
Apogee altitude
452.361 km
Perigee altitude
445.273 km
Semi-major axis
6,826.954 km
Eccentricity
0.00052
Inclination
53.1556°
RAAN
137.5256°
Arg. of periapsis
37.2766°
True anomaly
322.82387°
Mean anomaly
322.8598°
Eccentric anomaly
322.84184°
Mean motion
3.84771 °/min
Orbital period
93.56 mins
BSTAR
0.0013396
Loading maneuver chart data...
Computing Atmospheric mass density...

Documentation

Showing up to 5 results
|